TimeCDT,TemperatureF,Dew PointF,Humidity,Sea Level PressureIn,VisibilityMPH,Wind Direction,Wind SpeedMPH,Gust SpeedMPH,PrecipitationIn,Events,Conditions,WindDirDegrees,DateUTC
12:15 AM,51.8,35.6,54,29.95,10.0,South,11.5,-,N/A,,Clear,190,2012-10-09 05:15:00
12:35 AM,51.8,37.4,58,29.94,10.0,South,12.7,-,N/A,,Clear,190,2012-10-09 05:35:00
12:55 AM,51.8,37.4,58,29.93,10.0,South,11.5,16.1,N/A,,Clear,190,2012-10-09 05:55:00
1:15 AM,51.8,37.4,58,29.93,10.0,South,15.0,-,N/A,,Clear,180,2012-10-09 06:15:00
1:55 AM,53.6,37.4,54,29.90,10.0,South,17.3,28.8,N/A,,Clear,190,2012-10-09 06:55:00
2:15 AM,51.8,37.4,58,29.90,10.0,South,17.3,24.2,N/A,,Clear,190,2012-10-09 07:15:00
2:55 AM,53.6,41.0,62,29.88,10.0,South,17.3,25.3,N/A,,Clear,190,2012-10-09 07:55:00
3:15 AM,51.8,41.0,67,29.87,10.0,South,17.3,24.2,N/A,,Clear,180,2012-10-09 08:15:00
3:35 AM,53.6,42.8,67,29.87,10.0,South,18.4,25.3,N/A,,Clear,180,2012-10-09 08:35:00
3:55 AM,51.8,42.8,71,29.86,10.0,South,13.8,-,N/A,,Clear,180,2012-10-09 08:55:00
4:15 AM,51.8,42.8,71,29.86,10.0,South,15.0,25.3,N/A,,Clear,180,2012-10-09 09:15:00
4:35 AM,51.8,42.8,71,29.85,10.0,South,16.1,23.0,N/A,,Clear,180,2012-10-09 09:35:00
4:55 AM,51.8,42.8,71,29.85,10.0,South,16.1,23.0,N/A,,Clear,180,2012-10-09 09:55:00
5:15 AM,51.8,42.8,71,29.86,10.0,South,11.5,-,N/A,,Clear,190,2012-10-09 10:15:00
5:35 AM,51.8,42.8,71,29.86,10.0,South,9.2,-,N/A,,Clear,180,2012-10-09 10:35:00
5:55 AM,50.0,42.8,76,29.85,10.0,South,10.4,18.4,N/A,,Clear,190,2012-10-09 10:55:00
6:15 AM,50.0,42.8,76,29.85,10.0,South,15.0,-,N/A,,Clear,190,2012-10-09 11:15:00
6:55 AM,50.0,42.8,76,29.84,10.0,South,16.1,20.7,N/A,,Clear,190,2012-10-09 11:55:00
7:15 AM,50.0,42.8,76,29.85,10.0,SSW,11.5,23.0,N/A,,Clear,200,2012-10-09 12:15:00
7:35 AM,48.2,42.8,82,29.84,10.0,South,15.0,18.4,N/A,,Clear,190,2012-10-09 12:35:00
7:55 AM,48.2,42.8,82,29.84,10.0,SSW,16.1,-,N/A,,Clear,200,2012-10-09 12:55:00
8:15 AM,46.4,42.8,87,29.84,10.0,SSW,13.8,20.7,N/A,,Clear,200,2012-10-09 13:15:00
8:35 AM,48.2,42.8,82,29.84,10.0,SSW,13.8,23.0,N/A,,Clear,210,2012-10-09 13:35:00
8:55 AM,50.0,42.8,76,29.84,10.0,SSW,16.1,20.7,N/A,,Clear,210,2012-10-09 13:55:00
9:15 AM,51.8,42.8,71,29.85,10.0,SSW,11.5,-,N/A,,Clear,210,2012-10-09 14:15:00
9:35 AM,53.6,42.8,67,29.86,10.0,SW,12.7,-,N/A,,Clear,220,2012-10-09 14:35:00
9:55 AM,57.2,42.8,59,29.87,10.0,SW,12.7,-,N/A,,Clear,230,2012-10-09 14:55:00
10:15 AM,59.0,42.8,55,29.87,10.0,SW,13.8,19.6,N/A,,Clear,230,2012-10-09 15:15:00
10:35 AM,60.8,42.8,52,29.86,10.0,SW,12.7,-,N/A,,Clear,230,2012-10-09 15:35:00
10:55 AM,64.4,41.0,42,29.87,10.0,WSW,12.7,17.3,N/A,,Clear,240,2012-10-09 15:55:00
11:15 AM,68.0,32.0,26,29.87,10.0,WNW,12.7,19.6,N/A,,Clear,290,2012-10-09 16:15:00
11:35 AM,68.0,32.0,26,29.88,10.0,WNW,12.7,19.6,N/A,,Clear,300,2012-10-09 16:35:00
11:55 AM,68.0,33.8,28,29.88,10.0,WNW,10.4,-,N/A,,Clear,300,2012-10-09 16:55:00
12:15 PM,69.8,35.6,28,29.88,10.0,NW,11.5,-,N/A,,Clear,310,2012-10-09 17:15:00
12:35 PM,69.8,33.8,27,29.88,10.0,NW,12.7,17.3,N/A,,Clear,320,2012-10-09 17:35:00
12:55 PM,69.8,35.6,28,29.89,10.0,NNW,15.0,18.4,N/A,,Clear,340,2012-10-09 17:55:00
1:15 PM,68.0,35.6,30,29.90,10.0,NW,12.7,19.6,N/A,,Clear,320,2012-10-09 18:15:00
1:35 PM,68.0,37.4,33,29.91,10.0,NNW,12.7,16.1,N/A,,Clear,330,2012-10-09 18:35:00
1:55 PM,69.8,41.0,35,29.91,10.0,North,12.7,19.6,N/A,,Clear,350,2012-10-09 18:55:00
2:15 PM,69.8,41.0,35,29.91,10.0,North,17.3,20.7,N/A,,Clear,350,2012-10-09 19:15:00
2:35 PM,69.8,41.0,35,29.91,10.0,North,16.1,21.9,N/A,,Clear,350,2012-10-09 19:35:00
2:55 PM,71.6,42.8,35,29.92,10.0,North,12.7,21.9,N/A,,Clear,360,2012-10-09 19:55:00
3:15 PM,73.4,41.0,31,29.93,10.0,NNW,16.1,21.9,N/A,,Clear,340,2012-10-09 20:15:00
3:35 PM,73.4,41.0,31,29.93,10.0,NNW,16.1,20.7,N/A,,Clear,340,2012-10-09 20:35:00
3:55 PM,71.6,41.0,33,29.94,10.0,North,17.3,24.2,N/A,,Clear,360,2012-10-09 20:55:00
4:15 PM,71.6,41.0,33,29.95,10.0,North,16.1,21.9,N/A,,Clear,360,2012-10-09 21:15:00
4:35 PM,71.6,41.0,33,29.95,10.0,North,16.1,21.9,N/A,,Clear,360,2012-10-09 21:35:00
4:55 PM,71.6,41.0,33,29.96,10.0,North,17.3,24.2,N/A,,Clear,360,2012-10-09 21:55:00
5:15 PM,71.6,39.2,31,29.97,10.0,North,13.8,21.9,N/A,,Clear,360,2012-10-09 22:15:00
5:35 PM,69.8,37.4,31,29.98,10.0,North,15.0,24.2,N/A,,Clear,360,2012-10-09 22:35:00
5:55 PM,69.8,37.4,31,30.00,10.0,North,15.0,-,N/A,,Clear,360,2012-10-09 22:55:00
6:15 PM,68.0,37.4,33,30.01,10.0,North,16.1,-,N/A,,Clear,360,2012-10-09 23:15:00
6:35 PM,66.2,37.4,35,30.02,10.0,North,13.8,20.7,N/A,,Clear,10,2012-10-09 23:35:00
6:55 PM,64.4,37.4,37,30.03,10.0,North,15.0,-,N/A,,Clear,10,2012-10-09 23:55:00
7:15 PM,60.8,39.2,45,30.04,10.0,North,10.4,-,N/A,,Clear,10,2012-10-10 00:15:00
7:35 PM,60.8,39.2,45,30.05,10.0,NNE,11.5,-,N/A,,Clear,20,2012-10-10 00:35:00
7:55 PM,59.0,41.0,51,30.06,10.0,NNE,13.8,19.6,N/A,,Clear,20,2012-10-10 00:55:00
8:15 PM,59.0,41.0,51,30.08,10.0,NNE,12.7,-,N/A,,Clear,20,2012-10-10 01:15:00
8:35 PM,57.2,41.0,55,30.09,10.0,NNE,15.0,-,N/A,,Clear,20,2012-10-10 01:35:00
8:55 PM,55.4,41.0,58,30.10,10.0,NNE,11.5,-,N/A,,Clear,20,2012-10-10 01:55:00
9:15 PM,55.4,41.0,58,30.11,10.0,NNE,11.5,-,N/A,,Clear,20,2012-10-10 02:15:00
9:35 PM,53.6,41.0,62,30.12,10.0,North,10.4,-,N/A,,Clear,10,2012-10-10 02:35:00
9:55 PM,53.6,41.0,62,30.14,10.0,NNE,11.5,-,N/A,,Clear,20,2012-10-10 02:55:00
10:15 PM,51.8,41.0,67,30.15,10.0,NE,10.4,-,N/A,,Clear,40,2012-10-10 03:15:00
10:35 PM,51.8,41.0,67,30.17,10.0,NE,9.2,-,N/A,,Clear,50,2012-10-10 03:35:00
10:55 PM,50.0,41.0,71,30.17,10.0,NE,9.2,-,N/A,,Clear,50,2012-10-10 03:55:00
11:15 PM,50.0,41.0,71,30.19,10.0,NE,8.1,-,N/A,,Clear,50,2012-10-10 04:15:00
11:35 PM,50.0,41.0,71,30.19,10.0,NE,8.1,-,N/A,,Clear,40,2012-10-10 04:35:00
11:55 PM,48.2,41.0,76,30.19,10.0,NE,5.8,-,N/A,,Clear,50,2012-10-10 04:55:00